Regional Weather Roundup
Issued by NWS

Home | Current Version | Previous Version | Text Only | Print | Product List | Glossary On
Versions: 1 2 3 4 5 6 7 8 9 10 11 12 13 14 15 16 17 18 19 20 21 22 23 24 25 26 27 28 29 30 31 32 33 34 35 36 37 38 39 40 41 42 43 44 45 46 47 48 49 50
000
ASUS46 KSEW 050520
RWRWA

WASHINGTON REGIONAL WEATHER ROUNDUP
NATIONAL WEATHER SERVICE SEATTLE WA
1000 PM PDT TUE AUG 04 2020

NOTE:"FAIR" INDICATES FEW OR NO CLOUDS BELOW 12,000 FEET WITH NO
SIGNIFICANT WEATHER AND/OR OBSTRUCTIONS TO VISIBILITY.

WAZ507-509-555>559-050600-
SEATTLE, TACOMA, EVERETT, AND VICINITY

CITY           SKY/WX    TMP DP  RH WIND       PRES   REMARKS
EVERETT        CLEAR     63  54  72 N9        29.99F
BOEING FIELD   CLEAR     71  55  56 NW3       29.96R
RENTON         CLEAR     73  58  59 N8        29.96R
SEATAC AIRPORT PTCLDY    69  56  62 N9        29.98R
JBLM-MCCHORD   CLEAR     71  55  55 NE5       29.97R
PUYALLUP       FAIR      64  59  82 CALM      29.97F
BREMERTON      CLEAR     65  54  67 CALM      29.98S
JBLM-FT LEWIS  CLEAR     71  60  67 W3        29.96S
TACOMA NARROWS CLEAR     66  54  65 N7        29.97R
$$

WAZ001-503-506-510-514-515-050600-
NORTH INTERIOR

CITY           SKY/WX    TMP DP  RH WIND       PRES   REMARKS
BELLINGHAM     CLEAR     62  58  86 CALM      29.95F
FRIDAY HARBOR  CLEAR     54  50  86 CALM      29.97S
EASTSOUND      CLEAR     63  57  82 S5G12     29.94F
PORT ANGELES   CLEAR     63  53  70 W10       30.00S
EDIZ HOOK      FAIR     N/A N/A N/A W10       29.99S
PORT TOWNSEND  FAIR      64  55  72 NW7       29.96F
NAS WHIDBEY    PTCLDY    58  51  78 SW5       30.02S
ARLINGTON      CLEAR     63  55  75 NW5       29.99R
BURLINGTON     PTCLDY    59  55  88 CALM      29.97S
$$

WAZ020-022-039-040-504-511-512-050600-
SOUTHWEST INTERIOR

CITY           SKY/WX    TMP DP  RH WIND       PRES   REMARKS
SHELTON        CLEAR     67  57  70 W7        29.96R
OLYMPIA        CLEAR     69  57  65 CALM      29.96S
CHEHALIS       FAIR      70  59  68 CALM      29.97S
KELSO          CLEAR     70  61  73 VRB3      29.98R
VANCOUVER      CLEAR     76  60  57 NW8       29.93R
SCAPPOOSE, OR  CLEAR     73  60  63 NW6       29.93R
PORTLAND, OR   CLEAR     75  61  61 NW9       29.94R
$$

WAZ021-516-517-050600-
WASHINGTON COAST

CITY           SKY/WX    TMP DP  RH WIND       PRES   REMARKS
FORKS          CLEAR     57  51  80 N5        30.02S
HOQUIAM        CLEAR     57  56  96 W6        30.01R
ASTORIA, OR    CLOUDY    60  58  92 SW5       30.01R
$$

WAZ019-023-024-040-567>569-050600-
CASCADE MOUNTAINS AND COLUMBIA GORGE

CITY           SKY/WX    TMP DP  RH WIND       PRES   REMARKS
STAMPEDE PASS  CLEAR     60  54  80 SW5       30.10S
TROUTDALE, OR  PTCLDY    75  60  59 W5        29.93R
HOOD RIVER, OR CLEAR     72  54  53 CALM      29.91S
THE DALLES, OR CLEAR     81  58  45 NW12      29.85R
$$

WAZ026-027-041>044-520-521-050600-
EAST SLOPES

CITY           SKY/WX    TMP DP  RH WIND       PRES   REMARKS
OMAK           CLEAR     77  37  23 VRB3      29.90R
WENATCHEE      CLEAR     77  48  35 E9        29.89S
ELLENSBURG     CLEAR     75  57  53 NW13      29.94R
YAKIMA         CLEAR     71  54  54 SW5       29.90R
SUNNYSIDE ARPT CLEAR     49  37  64 N3        29.87
YAKIMA TC      FAIR      73  39  28 E5        29.90R
$$

WAZ028-034-035-050600-
COLUMBIA BASIN

CITY           SKY/WX    TMP DP  RH WIND       PRES   REMARKS
EPHRATA        CLEAR     76  42  29 NW7       29.89F
MOSES LAKE     CLEAR     79  43  27 N3        29.90S
PASCO          CLEAR     73  59  61 NW3       29.85S
RICHLAND ARPT  CLEAR     76  55  47 CALM      29.85S
HERMISTON, OR  CLEAR     72  50  45 S3        29.85S
$$

WAZ036>038-050600-
NORTHEAST WASHINGTON

CITY           SKY/WX    TMP DP  RH WIND       PRES   REMARKS
SPOKANE GEIGER CLEAR     79  42  26 CALM      29.96F
SPOKANE FELTS  CLEAR     72  43  35 N5        29.94F
FAIRCHILD AFB  CLEAR     72  38  29 E3        29.97S
COEURDALENE,ID CLEAR     71  56  58 E8        29.97F
DEER PARK      CLEAR     62  46  55 CALM      29.96S
$$

WAZ029>033-050600-
SOUTHEAST WASHINGTON

CITY           SKY/WX    TMP DP  RH WIND       PRES   REMARKS
PULLMAN        CLEAR     63  39  41 CALM      29.99S
LEWISTON, ID   CLEAR     77  39  25 S8        29.90S
WALLA WALLA    CLEAR     74  49  41 E8        29.89F
PENDLETON, OR  CLEAR     75  42  30 E3        29.91S
$$




USA.gov is the U.S. government's official web portal to all federal, state and local government web resources and services.